Location: Unspecified
(41.1637°N, 24.2901°E)
Time: 04:42:29
(UTC+02:00)

ISS - Pass Details

Date: 28 March 2023
Orbit: 413 x 423 km, 51.6° (Epoch: 01 April)

Event Time Altitude Azimuth Distance (km) Brightness Sun altitude
Rises 21:20:24 0° 306° (NW) 2,353 1.3 -28.6°
Reaches altitude 10° 21:22:30 10° 308° (NW) 1,487 0.0 -28.9°
Enters shadow 21:23:23 17° 309° (NW) 1,133 -0.8 -29.0°
